GW6121 Weather Reports


Display with metric or nautical units.
time (UTC)temp
F
wind
direction
speed
MPH
gust
MPH
rain 1hr
in
rain 24hr
in
rain mn
in
humidity
%
barometer
mb
20260506174625 59 123 7.0 0.0 0.00 0.00 0.01 84 1010.4
20260506173129 59 130 9.0 0.0 0.00 0.00 0.01 84 1010.3
20260506171602 60 146 7.0 0.0 0.00 0.00 0.00 83 1010.4
20260506170049 59 123 6.0 0.0 0.00 0.00 0.00 82 1010.3
20260506164642 59 90 7.0 0.0 0.00 0.00 0.00 82 1010.2
20260506163132 60 109 9.0 0.0 0.00 0.00 0.00 81 1010.1
20260506161613 61 111 7.0 0.0 0.00 0.00 0.00 73 1010.0
20260506160020 64 192 10.0 0.0 0.00 0.00 0.00 69 1009.5
20260506154504 64 58 14.0 0.0 0.00 0.00 0.00 67 1009.1
20260506153132 65 172 13.0 0.0 0.00 0.00 0.00 65 1008.9
20260506151612 66 213 12.0 0.0 0.00 0.00 0.00 66 1009.0
20260506150023 65 54 12.0 0.0 0.00 0.00 0.00 66 1009.2
20260506144509 65 46 11.0 0.0 0.00 0.00 0.00 67 1009.1
20260506143143 65 57 11.0 0.0 0.00 0.00 0.00 68 1009.1
20260506141624 65 53 11.0 0.0 0.00 0.00 0.00 66 1009.3
20260506140100 65 52 13.0 0.0 0.00 0.00 0.00 67 1009.5
20260506134516 65 53 11.0 0.0 0.00 0.00 0.00 66 1009.6
20260506133142 66 77 11.0 0.0 0.00 0.00 0.00 63 1009.7
20260506131617 67 86 11.0 0.0 0.00 0.00 0.00 62 1009.8
20260506130110 66 78 9.0 0.0 0.00 0.00 0.00 61 1010.0
20260506124552 67 78 11.0 0.0 0.00 0.00 0.00 62 1010.0
20260506123142 66 182 11.0 0.0 0.00 0.00 0.00 62 1010.0
20260506121623 67 181 8.0 0.0 0.00 0.00 0.00 63 1010.1
20260506114522 67 180 11.0 0.0 0.00 0.00 0.00 62 1009.9
20260506113141 67 236 11.0 0.0 0.00 0.00 0.00 60 1009.9
20260506111627 65 242 11.0 0.0 0.00 0.00 0.00 64 1010.1
20260506110056 64 188 5.0 0.0 0.00 0.00 0.00 65 1010.2
20260506104518 64 145 5.0 0.0 0.00 0.00 0.00 67 1010.4
20260506103140 64 125 5.0 0.0 0.00 0.00 0.00 67 1010.5
20260506101622 64 159 7.0 0.0 0.00 0.00 0.00 66 1010.6
20260506100105 64 109 7.0 0.0 0.00 0.00 0.00 66 1010.6
20260506094557 64 72 3.0 0.0 0.00 0.00 0.00 67 1010.6
20260506093002 62 101 2.0 0.0 0.00 0.00 0.00 71 1010.7
20260506091632 61 286 2.0 0.0 0.00 0.00 0.00 72 1010.6
20260506090107 61 291 4.0 0.0 0.00 0.00 0.00 73 1010.7
20260506084552 61 334 2.0 0.0 0.00 0.00 0.00 73 1010.6
20260506083144 61 286 2.0 0.0 0.00 0.00 0.00 76 1010.6
20260506081618 59 333 3.0 0.0 0.00 0.00 0.00 80 1010.4
20260506080108 58 300 2.0 0.0 0.00 0.00 0.00 84 1010.5
20260506073002 55 313 1.0 0.0 0.00 0.00 0.00 88 1010.5
20260506071636 54 315 1.0 0.0 0.00 0.00 0.00 88 1010.3
20260506070127 53 317 2.0 0.0 0.00 0.00 0.00 89 1010.4
20260506061504 51 89 1.0 0.0 0.00 0.00 0.00 89 1010.3
20260506060124 50 271 0.0 0.0 0.00 0.00 0.00 90 1010.2
20260506044558 48 294 1.0 0.0 0.00 0.00 0.00 89 1009.5
20260506043012 49 295 0.0 0.0 0.00 0.00 0.00 89 1009.4
20260506041641 49 295 0.0 0.0 0.00 0.00 0.00 89 1009.3
20260506040118 49 295 1.0 0.0 0.00 0.00 0.00 89 1009.3
20260506034600 49 295 1.0 0.0 0.00 0.00 0.00 89 1009.3
20260506033006 50 294 0.0 0.0 0.00 0.00 0.00 89 1009.3
20260506031626 50 295 0.0 0.0 0.00 0.00 0.00 89 1009.3
20260506030107 50 295 0.0 0.0 0.00 0.00 0.00 89 1009.3
20260506024532 50 295 0.0 0.0 0.00 0.00 0.00 92 1009.1
20260506023142 50 292 2.0 0.0 0.00 0.00 0.00 89 1009.1
20260506021640 50 295 2.0 0.0 0.00 0.00 0.00 88 1008.9
20260506020116 50 306 2.0 0.0 0.00 0.00 0.00 88 1009.0
20260506014526 51 306 3.0 0.0 0.00 0.00 0.00 88 1009.0
20260506013008 51 307 3.0 0.0 0.00 0.00 0.00 87 1009.0
20260506011637 52 310 3.0 0.0 0.00 0.00 0.00 87 1009.0
20260506010114 52 329 2.0 0.0 0.00 0.00 0.00 86 1009.1
20260506004518 52 333 2.0 0.0 0.00 0.00 0.00 85 1009.3
20260506003141 53 334 1.0 0.0 0.00 0.00 0.00 83 1009.3
20260506001622 54 336 2.0 0.0 0.00 0.00 0.00 80 1009.1
20260506000120 54 336 0.0 0.0 0.00 0.00 0.00 79 1009.3
20260505234511 54 336 0.0 0.0 0.00 0.00 0.00 79 1009.5
20260505233130 55 336 2.0 0.0 0.00 0.00 0.00 78 1009.7
20260505231617 54 336 1.0 0.0 0.00 0.00 0.00 79 1009.9
20260505230110 54 336 1.0 0.0 0.00 0.00 0.00 79 1010.0
20260505224646 54 336 3.0 0.0 0.00 0.00 0.00 78 1009.8
20260505223025 54 27 2.0 0.0 0.00 0.00 0.00 80 1009.9
20260505221639 54 355 1.0 0.0 0.00 0.00 0.00 81 1010.0
20260505220008 55 355 0.0 0.0 0.00 0.00 0.00 81 1010.1
20260505214629 55 355 3.0 0.0 0.00 0.00 0.01 80 1010.2
20260505213019 56 360 1.0 0.0 0.00 0.00 0.01 81 1010.2
20260505211637 55 337 1.0 0.0 0.00 0.00 0.01 81 1010.3
20260505210016 55 40 2.0 0.0 0.00 0.00 0.01 82 1010.4
20260505204632 55 73 5.0 0.0 0.00 0.00 0.01 82 1010.0
20260505203016 55 87 5.0 0.0 0.00 0.00 0.01 82 1010.2
20260505201642 55 87 7.0 0.0 0.00 0.00 0.01 82 1009.7
20260505200017 56 63 8.0 0.0 0.00 0.00 0.01 82 1009.2
20260505194637 57 48 11.0 0.0 0.00 0.00 0.01 81 1009.1
20260505193026 59 38 11.0 0.0 0.00 0.00 0.01 81 1008.9
20260505191510 62 26 1.0 0.0 0.00 0.00 0.01 85 1008.7
20260505190139 62 360 1.0 0.0 0.00 0.00 0.01 85 1008.5
20260505184629 62 60 4.0 0.0 0.00 0.00 0.01 84 1007.9
20260505183109 62 61 3.0 0.0 0.00 0.00 0.01 84 1008.1
20260505181525 62 61 2.0 0.0 0.00 0.00 0.01 84 1008.3
20260505180055 62 67 4.0 0.0 0.00 0.00 0.01 83 1008.4